"2010-07-22 00:00:00",3181,0.116,92.7,45.38,0.161,19.81,109.1487,22.71,23.64,50.03,0,111.4,13.11,23.54,54.7
"2010-07-22 00:00:30",3182,0.363,220.5,34.4,0.297,19.91,109.1475,22.7,23.64,51.17,0,111.4,13.11,23.54,182.5
"2010-07-22 00:01:00",3183,0.369,267.4,31.06,0.281,20.17,109.1441,22.7,23.63,51.55,0,111.4,13.11,23.53,229.4
"2010-07-22 00:01:30",3184,0.653,272.3,13.03,0.345,20.12,109.1449,22.7,23.62,51.98,0,111.4,13.11,23.53,234.3
"2010-07-22 00:02:00",3185,0.373,254.3,21.54,0.228,20.13,109.146,22.7,23.61,51.88,0,111.4,13.11,23.53,216.3
"2010-07-22 00:02:30",3186,0.059,262.1,56.84,0.141,20.32,109.1502,22.71,23.62,52.79,0,111.4,13.11,23.54,224.1
"2010-07-22 00:03:00",3187,0.182,280.7,78.08,0.232,20.15,109.1649,22.75,23.62,52.69,0,111.4,13.11,23.58,242.7
"2010-07-22 00:03:30",3188,0.157,2.194,30.56,0.159,20.4,109.1753,22.78,23.61,51.65,0,111.4,13.11,23.61,324.2
"2010-07-22 00:04:00",3189,0.398,119.3,25.65,0.261,19.8,109.2004,22.84,23.65,50.45,0,111.4,13.11,23.67,81.3
"2010-07-22 00:04:30",3190,0.698,155.6,13.9,0.25,19.74,109.181,22.79,23.66,50.83,0,111.4,13.11,23.62,117.6
"2010-07-22 00:05:00",3191,0.369,129.5,29.64,0.104,19.77,109.1583,22.73,23.65,50.79,0,111.4,13.11,23.56,91.5
"2010-07-22 00:05:30",3192,0.414,161.9,20.71,0.126,19.71,109.1548,22.72,23.63,49.34,0,111.4,13.1,23.55,123.9
"2010-07-22 00:06:00",3193,0.156,184.9,8.66,0.138,19.8,109.1511,22.71,23.62,50.04,0,111.4,13.1,23.55,146.9
"2010-07-22 00:06:30",3194,0.189,321.6,69.81,0.284,19.83,109.1491,22.71,23.62,50.67,0,111.4,13.1,23.54,283.6
"2010-07-22 00:07:00",3195,0.494,283.8,17.46,0.104,19.67,109.1353,22.67,23.6,51.17,0,111.4,13.1,23.50,245.8
"2010-07-22 00:07:30",3196,0.631,262.8,7.065,0.145,19.76,109.1246,22.65,23.6,50.8,0,111.4,13.09,23.48,224.8
"2010-07-22 00:08:00",3197,0.654,286.1,8.23,0.105,19.71,109.1255,22.65,23.58,49.99,0,111.4,13.09,23.48,248.1
"2010-07-22 00:08:30",3198,0.476,284.5,5.957,0.129,19.76,109.1311,22.66,23.58,50,0,111.4,13.09,23.49,246.5
"2010-07-22 00:09:00",3199,0.63,287.6,8.51,0.18,19.76,109.1417,22.69,23.57,48.8,0,111.4,13.09,23.52,249.6
"2010-07-22 00:09:30",3200,0.516,286.2,6.204,0.092,19.79,109.1484,22.71,23.56,47.94,0,111.4,13.09,23.54,248.2
"2010-07-22 00:10:00",3201,0.483,282.1,7.623,0.044,19.82,109.1546,22.72,23.61,47.86,0,111.4,13.09,23.55,244.1
"2010-07-22 00:10:30",3202,0.592,274.4,7.548,0.087,19.81,109.1744,22.77,23.6,44.91,0,111.4,13.09,23.61,236.4
"2010-07-22 00:11:00",3203,0.477,281.4,9.81,0.107,19.84,109.189,22.81,23.6,43.28,0,111.4,13.09,23.64,243.4
"2010-07-22 00:11:30",3204,0.267,288.4,16.01,0.062,19.85,109.2232,22.9,23.65,42.63,0,111.4,13.09,23.73,250.4
"2010-07-22 00:12:00",3205,0.256,321.7,3.857,0.072,19.83,109.2622,23,23.71,42.09,0,111.4,13.09,23.83,283.7
"2010-07-22 00:12:30",3206,0.44,320.9,3.642,0.062,19.73,109.2966,23.09,23.77,41.47,0,111.4,13.09,23.92,282.9
"2010-07-22 00:13:00",3207,0.571,311.1,2.226,0.06,19.75,109.3092,23.12,23.83,41.08,0,111.5,13.09,23.95,273.1
"2010-07-22 00:13:30",3208,0.884,312.7,4.694,0.235,19.88,109.3105,23.12,23.88,42.12,0,111.5,13.09,23.96,274.7
"2010-07-22 00:14:00",3209,1.183,319.5,5.803,0.322,19.86,109.3083,23.12,23.89,46.59,0,111.5,13.09,23.95,281.5
"2010-07-22 00:14:30",3210,1.704,314,6.293,0.121,19.91,109.299,23.09,23.89,48.8,0,111.5,13.09,23.93,276.0
"2010-07-22 00:15:00",3211,1.738,309.8,1.939,0.115,19.98,109.2744,23.03,23.88,50.28,0,111.5,13.09,23.86,271.8
"2010-07-22 00:15:30",3212,1.502,312.6,6.396,0.184,20.06,109.2519,22.97,23.85,48.66,0,111.5,13.09,23.81,274.6
"2010-07-22 00:16:00",3213,1.496,328.2,3.547,0.221,20.17,109.2435,22.95,23.84,48.25,0,111.5,13.09,23.78,290.2
"2010-07-22 00:16:30",3214,1.904,329.7,2.968,0.109,20.29,109.2475,22.96,23.84,47.74,0,111.5,13.09,23.79,291.7
"2010-07-22 00:17:00",3215,1.44,328.8,3.181,0.284,20.3,109.2488,22.97,23.84,47.79,0,111.5,13.09,23.80,290.8
"2010-07-22 00:17:30",3216,1.501,297.2,10.7,0.387,20.26,109.2429,22.95,23.84,49.51,0,111.5,13.09,23.78,259.2
"2010-07-22 00:18:00",3217,2.093,294.6,4.414,0.203,20.34,109.2388,22.94,23.82,50.82,0,111.5,13.09,23.77,256.6
"2010-07-22 00:18:30",3218,1.966,298.7,6.186,0.202,20.38,109.2236,22.9,23.81,50.82,0,111.5,13.09,23.73,260.7
"2010-07-22 00:19:00",3219,1.72,292.8,7.667,0.203,20.43,109.2155,22.88,23.78,50.28,0,111.5,13.09,23.71,254.8
"2010-07-22 00:19:30",3220,1.828,293.4,7.014,0.313,20.41,109.2175,22.88,23.78,50.58,0,111.5,13.09,23.72,255.4
"2010-07-22 00:20:00",3221,0.728,354,29.48,0.282,20.39,109.2382,22.94,23.79,50.26,0,111.5,13.09,23.77,316.0
"2010-07-22 00:20:30",3222,0.496,2.985,22.81,0.369,20.4,109.2805,23.05,23.83,50.15,0,111.5,13.09,23.88,325.0
"2010-07-22 00:21:00",3223,0.744,345.5,8.16,0.139,20.5,109.276,23.03,23.86,50.55,0,111.5,13.09,23.87,307.5
"2010-07-22 00:21:30",3224,1.04,351.1,10.37,0.311,20.46,109.2699,23.02,23.85,49.43,0,111.5,13.08,23.85,313.1
"2010-07-22 00:22:00",3225,1.401,351.7,8.3,0.119,20.39,109.2752,23.03,23.86,46.45,0,111.5,13.08,23.87,313.7
"2010-07-22 00:22:30",3226,1.5,6.896,5.676,0.13,20.39,109.3167,23.14,23.89,45.94,0,111.5,13.08,23.97,328.9
"2010-07-22 00:23:00",3227,1.874,353.4,9.55,0.345,20.42,109.3761,23.29,23.96,45.65,0,111.5,13.08,24.13,315.4
"2010-07-22 00:23:30",3228,1.778,353.7,4.434,0.12,20.41,109.3781,23.3,24.01,46.07,0,111.5,13.08,24.13,315.7
"2010-07-22 00:24:00",3229,1.504,352.5,4.544,0.124,20.41,109.3733,23.28,24.04,45.49,0,111.5,13.08,24.12,314.5
"2010-07-22 00:24:30",3230,1.64,341.8,7.913,0.13,20.31,109.3549,23.24,24.03,46.44,0,111.5,13.08,24.07,303.8
"2010-07-22 00:25:00",3231,1.167,2.875,6.345,0.164,20.47,109.3561,23.24,24.03,46.42,0,111.5,13.08,24.07,324.9
"2010-07-22 00:25:30",3232,1.025,352.3,5.156,0.145,20.51,109.3804,23.3,24.07,45.79,0,111.5,13.08,24.14,314.3
"2010-07-22 00:26:00",3233,0.35,358.2,15.42,0.298,21.05,109.3855,23.32,24.09,45.76,0,111.5,13.08,24.15,320.2
"2010-07-22 00:26:30",3234,0.455,37.65,16.22,0.211,20.11,109.4025,23.36,24.12,45.81,0,111.5,13.07,24.19,359.6
"2010-07-22 00:27:00",3235,1.087,81.5,18.87,0.42,20.25,109.38,23.3,24.15,46.2,0,111.5,13.07,24.14,43.5
"2010-07-22 00:27:30",3236,1.353,90.7,15.06,0.366,20.26,109.3553,23.24,24.12,46.4,0,111.5,13.07,24.07,52.7
"2010-07-22 00:28:00",3237,0.359,38.36,24.7,0.23,20.54,109.3417,23.2,24.1,46.36,0,111.5,13.07,24.04,0.4
"2010-07-22 00:28:30",3238,0.248,15.68,16.5,0.18,20.86,109.3582,23.25,24.09,46.5,0,111.5,13.07,24.08,337.7
"2010-07-22 00:29:00",3239,-0.04,134,94.2,0.074,20.63,109.378,23.3,24.11,46.33,0,111.5,13.07,24.13,96.0
"2010-07-22 00:29:30",3240,0.466,64.5,28.27,0.47,20.27,109.3597,23.25,24.12,46.1,0,111.5,13.07,24.08,26.5
"2010-07-22 00:30:00",3241,0.264,108.3,32.25,0.211,20.31,109.3432,23.21,24.1,46.28,0,111.5,13.08,24.04,70.3
"2010-07-22 00:30:30",3242,0.155,115.7,22.48,0.114,20.25,109.3181,23.14,24.08,46.26,0,111.5,13.08,23.98,77.7
"2010-07-22 00:31:00",3243,0.189,65.17,38.82,0.121,20.2,109.308,23.12,24.07,46.52,0,111.5,13.08,23.95,27.2
"2010-07-22 00:31:30",3244,0.488,24.19,11.96,0.163,20.34,109.333,23.18,24.06,45.69,0,111.5,13.08,24.01,346.2
"2010-07-22 00:32:00",3245,0.238,356.5,16.06,0.129,20.68,109.3767,23.29,24.08,45.65,0,111.5,13.08,24.13,318.5
"2010-07-22 00:32:30",3246,0.525,347.3,10.49,0.084,20.12,109.3974,23.35,24.13,45.37,0,111.4,13.08,24.18,309.3
"2010-07-22 00:33:00",3247,0.398,358.7,12.46,0.139,20.75,109.4139,23.39,24.16,44.94,0,111.5,13.08,24.22,320.7
"2010-07-22 00:33:30",3248,0.277,359.9,13.53,0.134,20.73,109.4795,23.56,24.21,44.53,0,111.5,13.08,24.39,321.9
"2010-07-22 00:34:00",3249,0.521,22.51,13.04,0.19,20.29,109.5294,23.69,24.31,43.71,0,111.5,13.08,24.52,344.5
"2010-07-22 00:34:30",3250,0.383,19.47,17.79,0.142,20.42,109.565,23.78,24.38,43.37,0,111.5,13.08,24.61,341.5
"2010-07-22 00:35:00",3251,0.445,20.4,8.9,0.157,20.29,109.5815,23.82,24.46,43.07,0,111.5,13.08,24.65,342.4
"2010-07-22 00:35:30",3252,0.539,26.21,4.626,0.053,20.07,109.6127,23.9,24.52,42.66,0,111.5,13.08,24.73,348.2
"2010-07-22 00:36:00",3253,0.425,41.24,10.52,0.06,20.1,109.6177,23.91,24.59,42.6,0,111.5,13.08,24.75,3.2
"2010-07-22 00:36:30",3254,0.483,64.63,3.015,0.112,20.22,109.5745,23.8,24.59,42.51,0,111.5,13.08,24.64,26.6
"2010-07-22 00:37:00",3255,0.466,63.48,3.655,0.075,20.21,109.5173,23.65,24.56,42.56,0,111.5,13.08,24.49,25.5
"2010-07-22 00:37:30",3256,0.426,72.36,10.25,0.052,20.1,109.4691,23.53,24.51,43.07,0,111.5,13.08,24.36,34.4
"2010-07-22 00:38:00",3257,0.54,88.8,9.06,0.139,20.14,109.431,23.43,24.44,43.7,0,111.5,13.08,24.27,50.8
"2010-07-22 00:38:30",3258,0.665,112.2,4.952,0.091,19.99,109.3952,23.34,24.36,45.59,0,111.5,13.08,24.17,74.2
"2010-07-22 00:39:00",3259,0.583,112,10.46,0.115,20.03,109.3612,23.25,24.3,45.17,0,111.5,13.08,24.09,74.0
"2010-07-22 00:39:30",3260,0.518,79.69,11.74,0.133,20.09,109.3345,23.19,24.23,45.59,0,111.5,13.08,24.02,41.7
"2010-07-22 00:40:00",3261,0.354,80.8,12.4,0.086,20.18,109.3142,23.13,24.18,45.6,0,111.5,13.08,23.97,42.8
"2010-07-22 00:40:30",3262,0.372,119.6,15.96,0.142,19.99,109.3001,23.1,24.14,45.68,0,111.5,13.08,23.93,81.6
"2010-07-22 00:41:00",3263,0.371,137.8,3.679,0.053,19.95,109.2957,23.09,24.12,46.1,0,111.5,13.08,23.92,99.8
"2010-07-22 00:41:30",3264,0.303,131.7,8.35,0.1,20.05,109.2973,23.09,24.07,45.87,0,111.5,13.08,23.92,93.7
"2010-07-22 00:42:00",3265,0.283,158.1,9.96,0.074,20.05,109.2945,23.08,24.03,45.98,0,111.5,13.07,23.91,120.1
"2010-07-22 00:42:30",3266,0.14,149.4,7.255,0.051,20.04,109.2987,23.09,24.05,45.75,0,111.5,13.07,23.93,111.4
"2010-07-22 00:43:00",3267,0.074,127.5,23.28,0.051,20.06,109.2898,23.07,24.04,45.49,0,111.5,13.07,23.90,89.5
"2010-07-22 00:43:30",3268,0.08,161.4,9.16,0.04,20.02,109.2924,23.08,24.02,45.49,0,111.5,13.07,23.91,123.4
"2010-07-22 00:44:00",3269,0.144,184.7,7.135,0.09,20.23,109.2984,23.09,24.02,45.51,0,111.5,13.07,23.92,146.7
"2010-07-22 00:44:30",3270,0.073,186.6,12.23,0.055,20.09,109.2925,23.08,24.02,45.44,0,111.5,13.07,23.91,148.6
"2010-07-22 00:45:00",3271,0.157,199.9,7.55,0.05,19.96,109.2861,23.06,24.02,45.45,0,111.5,13.07,23.89,161.9
"2010-07-22 00:45:30",3272,0.087,189.7,13.84,0.054,19.95,109.2804,23.05,24,45.48,0,111.5,13.07,23.88,151.7
"2010-07-22 00:46:00",3273,0.098,197.4,14.79,0.072,19.9,109.2804,23.05,23.98,45.61,0,111.5,13.07,23.88,159.4
"2010-07-22 00:46:30",3274,0.091,172,14.25,0.077,19.89,109.2804,23.05,23.98,45.62,0,111.5,13.07,23.88,134.0
"2010-07-22 00:47:00",3275,-0.059,89.2,23.38,0.046,19.77,109.286,23.06,23.97,45.5,0,111.5,13.07,23.89,51.2
"2010-07-22 00:47:30",3276,-0.122,140.2,36.49,0.002,20.37,109.2919,23.08,23.98,45.49,0,111.5,13.07,23.91,102.2
"2010-07-22 00:48:00",3277,-0.123,72.29,50.73,0.005,20.44,109.2888,23.07,23.97,45.68,0,111.5,13.07,23.90,34.3
"2010-07-22 00:48:30",3278,-0.078,313.5,74.8,0.06,20.27,109.2824,23.05,23.94,45.79,0,111.5,13.07,23.88,275.5
"2010-07-22 00:49:00",3279,-0.109,281.1,39.35,0.025,20.32,109.2801,23.05,23.95,45.87,0,111.5,13.07,23.88,243.1
"2010-07-22 00:49:30",3280,-0.114,216.5,66.09,0.009,20.19,109.2798,23.04,23.94,46.01,0,111.5,13.07,23.88,178.5
"2010-07-22 00:50:00",3281,-0.087,307.5,21.65,0.044,20.35,109.278,23.04,23.93,46.05,0,111.5,13.07,23.87,269.5
"2010-07-22 00:50:30",3282,-0.091,347,44.51,0.048,20.55,109.2849,23.06,23.94,46.03,0,111.5,13.07,23.89,309.0
"2010-07-22 00:51:00",3283,-0.09,120.2,25.5,0.036,19.91,109.309,23.12,23.95,46.07,0,111.5,13.07,23.95,82.2
"2010-07-22 00:51:30",3284,-0.075,140.8,25.86,0.045,19.83,109.3083,23.12,23.96,45.97,0,111.5,13.07,23.95,102.8
"2010-07-22 00:52:00",3285,-0.103,162.3,38.73,0.018,19.83,109.3058,23.11,23.97,45.89,0,111.5,13.07,23.94,124.3
"2010-07-22 00:52:30",3286,-0.068,154.5,17.66,0.033,19.75,109.3035,23.11,23.97,45.94,0,111.5,13.07,23.94,116.5
"2010-07-22 00:53:00",3287,-0.052,131.2,10.84,0.047,19.65,109.2937,23.08,23.97,45.79,0,111.5,13.07,23.91,93.2
"2010-07-22 00:53:30",3288,0.076,129.4,6.938,0.038,19.56,109.2824,23.05,23.95,45.66,0,111.5,13.07,23.88,91.4
"2010-07-22 00:54:00",3289,0.034,142.9,15.38,0.066,19.65,109.2796,23.04,23.94,45.69,0,111.5,13.07,23.88,104.9
"2010-07-22 00:54:30",3290,-0.105,177.2,11.12,0.035,20.07,109.2793,23.04,23.93,45.8,0,111.5,13.07,23.88,139.2
"2010-07-22 00:55:00",3291,-0.13,199.3,40.3,0.006,20.1,109.2747,23.03,23.92,46,0,111.5,13.07,23.86,161.3
"2010-07-22 00:55:30",3292,-0.066,275.9,6.152,0.042,19.71,109.2679,23.01,23.91,46.18,0,111.5,13.07,23.85,237.9
"2010-07-22 00:56:00",3293,0.073,248.2,15.66,0.085,19.55,109.2605,22.99,23.91,46.85,0,111.5,13.07,23.83,210.2
"2010-07-22 00:56:30",3294,0.176,237,18.87,0.066,19.49,109.2518,22.97,23.89,49.13,0,111.5,13.07,23.80,199.0
"2010-07-22 00:57:00",3295,0.107,261.4,39.76,0.083,19.8,109.23,22.92,23.89,51.11,0,111.5,13.07,23.75,223.4
"2010-07-22 00:57:30",3296,0.047,140.2,60.5,0.152,19.82,109.2143,22.88,23.86,51.59,0,111.5,13.07,23.71,102.2
"2010-07-22 00:58:00",3297,0.095,213.1,35.5,0.112,19.7,109.2105,22.87,23.83,50.67,0,111.5,13.07,23.70,175.1
"2010-07-22 00:58:30",3298,0.137,192.5,12.97,0.058,19.71,109.1917,22.82,23.82,50.38,0,111.5,13.07,23.65,154.5
"2010-07-22 00:59:00",3299,0.354,186.5,7.592,0.174,19.76,109.184,22.8,23.78,50.31,0,111.5,13.06,23.63,148.5
"2010-07-22 00:59:30",3300,0.44,198.9,6.776,0.095,19.66,109.177,22.78,23.76,50.14,0,111.5,13.06,23.61,160.9
"2010-07-22 01:00:00",3301,0.283,195.2,16.32,0.172,19.73,109.1765,22.78,23.75,50.46,0,111.5,13.06,23.61,157.2
"2010-07-22 01:00:30",3302,0.396,180.7,6.195,0.101,19.87,109.1765,22.78,23.72,50.23,0,111.5,13.06,23.61,142.7
"2010-07-22 01:01:00",3303,0.359,186.7,10.22,0.075,19.8,109.1765,22.78,23.72,50.08,0,111.5,13.06,23.61,148.7
"2010-07-22 01:01:30",3304,0.539,188.9,5.461,0.12,19.89,109.1765,22.78,23.71,50.34,0,111.5,13.06,23.61,150.9
"2010-07-22 01:02:00",3305,0.378,217.5,5.992,0.077,19.68,109.1765,22.78,23.7,50.57,0,111.5,13.06,23.61,179.5
"2010-07-22 01:02:30",3306,0.384,226.3,4.121,0.07,19.8,109.1756,22.78,23.69,50.68,0,111.5,13.06,23.61,188.3
"2010-07-22 01:03:00",3307,0.358,218.7,3.025,0.04,19.73,109.1717,22.77,23.67,50.6,0,111.5,13.06,23.60,180.7
"2010-07-22 01:03:30",3308,0.506,222.8,3.409,0.064,19.73,109.1678,22.76,23.68,50.74,0,111.5,13.06,23.59,184.8
"2010-07-22 01:04:00",3309,0.367,227.4,5.475,0.114,19.89,109.1653,22.75,23.66,50.75,0,111.5,13.06,23.58,189.4
"2010-07-22 01:04:30",3310,0.267,207.9,5.877,0.058,19.89,109.1669,22.75,23.67,50.48,0,111.5,13.06,23.59,169.9
"2010-07-22 01:05:00",3311,0.335,201.4,9.03,0.053,19.95,109.1695,22.76,23.65,50.16,0,111.5,13.06,23.59,163.4
"2010-07-22 01:05:30",3312,0.532,203.5,10.55,0.133,20.02,109.1753,22.78,23.65,49.85,0,111.5,13.06,23.61,165.5
"2010-07-22 01:06:00",3313,0.371,184.2,11.96,0.068,20.27,109.1765,22.78,23.65,49.64,0,111.5,13.06,23.61,146.2
"2010-07-22 01:06:30",3314,0.219,181.4,4.525,0.049,20.43,109.1837,22.8,23.65,49.86,0,111.5,13.06,23.63,143.4
"2010-07-22 01:07:00",3315,0.325,187.1,6.171,0.104,20.1,109.1846,22.8,23.66,49.71,0,111.5,13.06,23.63,149.1
"2010-07-22 01:07:30",3316,0.318,191.6,10.31,0.063,20.15,109.1846,22.8,23.68,49.64,0,111.5,13.06,23.63,153.6
"2010-07-22 01:08:00",3317,0.458,196.6,7.618,0.095,20.12,109.1882,22.81,23.68,49.58,0,111.5,13.06,23.64,158.6
"2010-07-22 01:08:30",3318,0.607,219.3,6.081,0.088,20,109.1927,22.82,23.69,49.42,0,111.5,13.06,23.65,181.3
"2010-07-22 01:09:00",3319,0.467,216.5,10.27,0.092,20.04,109.1994,22.84,23.68,49.23,0,111.5,13.06,23.67,178.5
"2010-07-22 01:09:30",3320,0.391,206.3,7.541,0.046,20.08,109.2013,22.84,23.68,49.2,0,111.5,13.06,23.67,168.3
"2010-07-22 01:10:00",3321,0.472,215.3,5.87,0.073,20.03,109.208,22.86,23.68,49.18,0,111.5,13.06,23.69,177.3
"2010-07-22 01:10:30",3322,0.522,227.7,2.602,0.048,20.05,109.2085,22.86,23.69,50.09,0,111.5,13.06,23.69,189.7
"2010-07-22 01:11:00",3323,0.608,220.3,6.667,0.06,20.15,109.2089,22.86,23.71,49.52,0,111.5,13.06,23.69,182.3
"2010-07-22 01:11:30",3324,0.632,223.8,2.674,0.102,20.12,109.2089,22.86,23.71,49,0,111.5,13.06,23.69,185.8
"2010-07-22 01:12:00",3325,1.164,231,4.148,0.17,20.25,109.2098,22.86,23.73,50.3,0,111.5,13.06,23.70,193.0
"2010-07-22 01:12:30",3326,1.563,225.9,3.555,0.111,20.3,109.2092,22.86,23.72,50.96,0,111.5,13.06,23.69,187.9
"2010-07-22 01:13:00",3327,1.295,228.2,3.314,0.132,20.33,109.2073,22.86,23.71,50.84,0,111.5,13.06,23.69,190.2
"2010-07-22 01:13:30",3328,1.206,221.2,8.15,0.099,20.41,109.2086,22.86,23.72,50.82,0,111.5,13.06,23.69,183.2
"2010-07-22 01:14:00",3329,1.095,212.8,4.035,0.097,20.5,109.2075,22.86,23.71,50.41,0,111.5,13.06,23.69,174.8
"2010-07-22 01:14:30",3330,1.087,224.7,4.106,0.115,20.48,109.2066,22.86,23.71,50.39,0,111.5,13.06,23.69,186.7
"2010-07-22 01:15:00",3331,1.066,227.6,1.837,0.085,20.57,109.2078,22.86,23.7,50.44,0,111.5,13.06,23.69,189.6
"2010-07-22 01:15:30",3332,0.978,223.6,3.008,0.133,20.62,109.2011,22.84,23.72,50.46,0,111.5,13.06,23.67,185.6
"2010-07-22 01:16:00",3333,0.899,205.7,6.912,0.145,20.78,109.195,22.83,23.7,50.58,0,111.5,13.06,23.66,167.7
"2010-07-22 01:16:30",3334,1.043,204.3,5.117,0.122,20.95,109.1924,22.82,23.71,50.71,0,111.5,13.06,23.65,166.3
"2010-07-22 01:17:00",3335,0.744,208,4.913,0.111,21.03,109.1852,22.8,23.69,50.81,0,111.5,13.05,23.63,170.0
"2010-07-22 01:17:30",3336,0.817,204.5,3.69,0.091,21.2,109.1843,22.8,23.69,50.61,0,111.5,13.05,23.63,166.5
"2010-07-22 01:18:00",3337,0.918,211.5,3.353,0.08,21.25,109.1773,22.78,23.7,50.86,0,111.5,13.05,23.61,173.5
"2010-07-22 01:18:30",3338,1.029,211,2.474,0.084,21.33,109.1768,22.78,23.69,51.16,0,111.5,13.05,23.61,173.0
"2010-07-22 01:19:00",3339,0.815,215.7,3.468,0.076,21.44,109.1789,22.79,23.69,51.18,0,111.5,13.05,23.62,177.7
"2010-07-22 01:19:30",3340,0.989,205.4,3.055,0.119,21.48,109.1821,22.79,23.68,50.67,0,111.5,13.05,23.63,167.4
"2010-07-22 01:20:00",3341,1.311,217.2,4.07,0.072,21.56,109.1865,22.8,23.68,51.14,0,111.5,13.05,23.64,179.2
"2010-07-22 01:20:30",3342,1.374,219.2,1.919,0.099,21.61,109.1879,22.81,23.67,51.46,0,111.5,13.05,23.64,181.2
"2010-07-22 01:21:00",3343,1.221,216.2,2.925,0.144,21.65,109.1852,22.8,23.66,51.36,0,111.5,13.05,23.63,178.2
"2010-07-22 01:21:30",3344,1.375,210.3,5.031,0.172,21.67,109.1788,22.79,23.67,50.84,0,111.5,13.06,23.62,172.3
"2010-07-22 01:22:00",3345,1.422,212.9,5.062,0.057,21.68,109.1788,22.79,23.67,50.59,0,111.4,13.06,23.62,174.9
"2010-07-22 01:22:30",3346,1.687,208.4,2.643,0.145,21.7,109.1797,22.79,23.65,49.52,0,111.4,13.06,23.62,170.4
"2010-07-22 01:23:00",3347,1.877,209.4,1.824,0.05,21.7,109.1825,22.79,23.67,48.56,0,111.4,13.06,23.63,171.4
"2010-07-22 01:23:30",3348,1.929,211.6,2.252,0.07,21.71,109.188,22.81,23.66,48.17,0,111.4,13.06,23.64,173.6
"2010-07-22 01:24:00",3349,1.894,212.4,3.215,0.089,21.69,109.188,22.81,23.67,48.34,0,111.4,13.06,23.64,174.4
"2010-07-22 01:24:30",3350,1.883,210.6,3.39,0.118,21.73,109.188,22.81,23.67,48.18,0,111.4,13.06,23.64,172.6
"2010-07-22 01:25:00",3351,1.632,210.5,3.393,0.104,21.74,109.188,22.81,23.67,47.84,0,111.4,13.07,23.64,172.5
"2010-07-22 01:25:30",3352,1.802,208.3,2.585,0.106,21.76,109.1899,22.81,23.67,48.11,0,111.4,13.07,23.65,170.3
"2010-07-22 01:26:00",3353,1.702,212.9,3.518,0.126,21.73,109.1951,22.83,23.68,48.33,0,111.4,13.07,23.66,174.9
"2010-07-22 01:26:30",3354,1.557,210.7,1.76,0.085,21.78,109.1954,22.83,23.67,48.11,0,111.4,13.07,23.66,172.7
"2010-07-22 01:27:00",3355,1.683,214.6,2.04,0.045,21.79,109.2004,22.84,23.67,48.88,0,111.4,13.07,23.67,176.6
"2010-07-22 01:27:30",3356,1.672,224.7,1.634,0.045,21.8,109.2059,22.85,23.67,47.95,0,111.4,13.07,23.69,186.7
"2010-07-22 01:28:00",3357,1.762,221.7,1.491,0.049,21.8,109.2074,22.86,23.69,47.74,0,111.4,13.07,23.69,183.7
"2010-07-22 01:28:30",3358,1.829,222.4,1.287,0.057,21.85,109.2117,22.87,23.7,47.28,0,111.4,13.07,23.70,184.4
"2010-07-22 01:29:00",3359,1.793,220.4,1.351,0.044,21.82,109.2186,22.89,23.72,47.62,0,111.4,13.07,23.72,182.4
"2010-07-22 01:29:30",3360,1.84,220.7,1.707,0.044,21.79,109.2215,22.89,23.72,48.35,0,111.4,13.07,23.73,182.7
"2010-07-22 01:30:00",3361,1.797,221.6,1.729,0.042,21.84,109.2182,22.89,23.72,48.72,0,111.4,13.07,23.72,183.6
"2010-07-22 01:30:30",3362,1.653,220.9,1.462,0.076,21.78,109.2163,22.88,23.73,49.31,0,111.4,13.07,23.71,182.9
"2010-07-22 01:31:00",3363,1.612,214.1,2.687,0.051,21.79,109.209,22.86,23.73,49.3,0,111.4,13.08,23.69,176.1
"2010-07-22 01:31:30",3364,1.64,214.8,2.641,0.083,21.79,109.1936,22.82,23.72,49.35,0,111.3,13.08,23.65,176.8
"2010-07-22 01:32:00",3365,1.615,216.6,1.449,0.067,21.8,109.1987,22.84,23.71,48.93,0,111.4,13.08,23.67,178.6
"2010-07-22 01:32:30",3366,1.701,215.7,1.586,0.064,21.84,109.2064,22.86,23.7,48.85,0,111.3,13.08,23.69,177.7
"2010-07-22 01:33:00",3367,1.693,214,1.486,0.057,21.79,109.2084,22.86,23.71,47.92,0,111.3,13.08,23.69,176.0
"2010-07-22 01:33:30",3368,1.686,214.2,2.692,0.057,21.8,109.2156,22.88,23.71,47.36,0,111.3,13.08,23.71,176.2
"2010-07-22 01:34:00",3369,1.715,213.7,2.109,0.04,21.77,109.2183,22.89,23.73,46.49,0,111.3,13.08,23.72,175.7
"2010-07-22 01:34:30",3370,1.691,213.6,1.027,0.059,21.8,109.2186,22.89,23.73,46.13,0,111.3,13.07,23.72,175.6
"2010-07-22 01:35:00",3371,1.815,215.3,1.255,0.051,21.74,109.2211,22.89,23.74,45.96,0,111.3,13.07,23.73,177.3
"2010-07-22 01:35:30",3372,1.891,216.3,1.76,0.022,21.76,109.2262,22.91,23.74,45.89,0,111.3,13.07,23.74,178.3
"2010-07-22 01:36:00",3373,1.912,214.2,0.707,0.041,21.79,109.2278,22.91,23.74,45.65,0,111.3,13.07,23.74,176.2
"2010-07-22 01:36:30",3374,1.935,215.1,1.151,0.05,21.78,109.2278,22.91,23.76,46.23,0,111.3,13.08,23.74,177.1
"2010-07-22 01:37:00",3375,2.02,215,1.618,0.095,21.81,109.224,22.9,23.75,46.26,0,111.3,13.08,23.73,177.0
"2010-07-22 01:37:30",3376,2.05,217.4,1.997,0.065,21.83,109.2233,22.9,23.76,47.42,0,111.3,13.08,23.73,179.4
"2010-07-22 01:38:00",3377,1.892,217.4,1.377,0.091,21.8,109.2207,22.89,23.75,47.72,0,111.3,13.08,23.72,179.4
"2010-07-22 01:38:30",3378,1.94,214.8,1.31,0.066,21.83,109.2123,22.87,23.74,47.76,0,111.2,13.08,23.70,176.8
"2010-07-22 01:39:00",3379,1.733,215.5,1.248,0.047,21.84,109.2131,22.87,23.75,47.63,0,111.2,13.08,23.71,177.5
"2010-07-22 01:39:30",3380,1.945,214.4,2.257,0.059,21.82,109.2205,22.89,23.75,47.56,0,111.2,13.08,23.72,176.4
"2010-07-22 01:40:00",3381,2.098,219.2,1.684,0.092,21.84,109.2158,22.88,23.72,47.51,0,111.2,13.09,23.71,181.2
"2010-07-22 01:40:30",3382,2.264,222.3,1.928,0.082,21.88,109.2136,22.87,23.72,47.36,0,111.2,13.09,23.71,184.3
"2010-07-22 01:41:00",3383,2.087,223.1,1.041,0.068,21.88,109.2185,22.89,23.72,47.35,0,111.2,13.09,23.72,185.1
"2010-07-22 01:41:30",3384,2.237,221.7,1.051,0.064,21.89,109.2219,22.9,23.73,47.29,0,111.2,13.1,23.73,183.7
"2010-07-22 01:42:00",3385,2.017,222.8,2.028,0.107,21.88,109.2222,22.9,23.73,47.36,0,111.2,13.1,23.73,184.8
"2010-07-22 01:42:30",3386,2.056,219.9,4.377,0.064,21.87,109.2211,22.89,23.74,47.61,0,111.2,13.1,23.73,181.9
"2010-07-22 01:43:00",3387,2.162,221.8,2.948,0.045,21.87,109.2149,22.88,23.74,47.53,0,111.2,13.1,23.71,183.8
"2010-07-22 01:43:30",3388,2.247,225.3,1.456,0.129,21.88,109.2074,22.86,23.74,47.65,0,111.2,13.1,23.69,187.3
"2010-07-22 01:44:00",3389,2.217,225.4,1.279,0.113,21.86,109.2009,22.84,23.73,47.86,0,111.2,13.1,23.67,187.4
"2010-07-22 01:44:30",3390,2.105,226.4,1.341,0.05,21.86,109.2053,22.85,23.71,48.34,0,111.2,13.1,23.68,188.4
"2010-07-22 01:45:00",3391,2.097,225.2,1.7,0.097,21.82,109.2088,22.86,23.71,48.67,0,111.2,13.1,23.69,187.2
"2010-07-22 01:45:30",3392,2.075,224.4,1.589,0.09,21.78,109.2049,22.85,23.69,49.69,0,111.2,13.1,23.68,186.4
"2010-07-22 01:46:00",3393,1.866,222.7,3.708,0.109,21.78,109.1847,22.8,23.68,50.11,0,111.2,13.1,23.63,184.7
"2010-07-22 01:46:30",3394,1.803,220.7,1.724,0.077,21.8,109.1791,22.79,23.64,49.48,0,111.2,13.1,23.62,182.7
"2010-07-22 01:47:00",3395,2.033,211.2,4.071,0.104,21.86,109.1739,22.77,23.65,48.28,0,111.2,13.1,23.60,173.2
"2010-07-22 01:47:30",3396,2.007,211.8,1.175,0.053,21.9,109.1835,22.8,23.64,47.79,0,111.1,13.1,23.63,173.8
"2010-07-22 01:48:00",3397,1.995,212.5,0.747,0.047,21.89,109.1914,22.82,23.67,47.67,0,111.1,13.1,23.65,174.5
"2010-07-22 01:48:30",3398,1.945,215.2,1.721,0.06,21.83,109.1919,22.82,23.66,47.83,0,111.1,13.11,23.65,177.2
"2010-07-22 01:49:00",3399,1.971,217.4,1.515,0.052,21.8,109.1911,22.82,23.65,48.06,0,111.1,13.11,23.65,179.4
"2010-07-22 01:49:30",3400,1.94,215.4,1.144,0.043,21.85,109.1899,22.81,23.66,47.81,0,111.1,13.11,23.65,177.4